#timestamp,LO_Frequency,Hit,StdDev 
1578042015.2,286046998.1,N
1578042035.0,286047001.0,N
1578042035.9,286047001.0,N
1578042055.8,286047000.3,N
1578042075.6,286047002.6,N
1578042095.4,286047004.0,N
1578042115.3,286047001.3,N
1578042135.1,286047001.7,N
1578042155.9,286047002.7,N
1578042175.7,286047003.8,N
1578042195.5,286047003.2,N
1578042215.4,286047004.4,N
1578042235.2,286047003.2,N
1578042255.0,286047004.2,N
1578042255.9,286047004.2,N
1578042275.8,286047001.4,N
1578042295.6,286047004.1,N
1578042315.5,286047004.4,N
1578042335.3,286047004.0,N
1578042355.1,286047002.5,N
1578042375.9,286047002.2,N
1578042395.7,286047001.7,N
1578042415.5,286047002.6,N
1578042435.4,286047000.1,N
1578042455.2,286047000.6,N
1578042475.1,286047000.8,N
1578042476.0,286047000.8,N
1578042495.8,286046999.0,N
1578042515.6,286047001.1,N
1578042535.5,286047000.2,N
1578042555.3,286046999.3,N
1578042575.1,286047001.0,N
1578042595.9,286046998.2,N
1578042615.7,286047000.4,N
1578042635.5,286047000.8,N
1578042655.4,286046999.3,N
1578042675.2,286046998.9,N
1578042695.1,286046998.5,N
1578042696.0,286046998.5,N
1578042715.8,286047001.1,N
1578042735.6,286046999.3,N
1578042755.5,286046996.6,N
1578042775.3,286046998.6,N
1578042795.2,286046998.8,N
1578042815.9,286046996.5,N
1578042835.7,286046997.7,N
1578042855.6,286046998.0,N
1578042875.4,286046996.1,N
1578042895.2,286046997.6,N
1578042915.1,286046994.9,N
1578042916.0,286046994.9,N
1578042935.8,286046997.1,N
1578042955.7,286046998.9,N
1578042975.5,286046998.2,N
1578042995.3,286046996.5,N
1578043015.2,286046999.1,N
1578043035.0,286047001.2,N
1578043035.9,286047001.2,N
1578043055.8,286047000.7,N
1578043075.6,286047001.2,N
1578043095.4,286047001.0,N
1578043115.3,286047001.2,N
1578043135.1,286046998.6,N
1578043155.9,286047001.1,N
1578043175.7,286047000.9,N
1578043195.5,286047000.8,N
1578043215.4,286046998.1,N
1578043235.2,286046998.9,N
1578043255.0,286047000.9,N
1578043255.9,286047000.9,N
1578043275.8,286047000.7,N
1578043295.6,286047000.6,N
1578043315.5,286047000.5,N
1578043335.3,286047000.2,N
1578043355.1,286047001.1,N
1578043375.9,286046998.8,N
1578043395.7,286047000.6,N
1578043415.6,286047001.2,N
1578043435.4,286047000.3,N
1578043455.2,286047002.8,N
1578043475.1,286047001.2,N
1578043476.0,286047001.2,N
1578043495.8,286047000.3,N
1578043515.7,286047000.9,N
1578043535.5,286047000.2,N
1578043555.3,286047000.3,N
1578043575.2,286047001.0,N
1578043595.0,286047001.1,N
1578043595.9,286047001.1,N
1578043615.7,286047000.6,N
1578043635.6,286047002.5,N
1578043655.4,286047001.7,N
1578043675.3,286047002.8,N
1578043695.1,286047000.4,N
1578043696.0,286047000.4,N
1578043715.8,286047000.2,N
1578043735.7,286046998.1,N
1578043755.5,286047000.5,N
1578043775.3,286047000.7,N
1578043795.2,286046998.7,N
1578043815.0,286046998.7,N
1578043815.9,286046998.7,N
1578043835.8,286046998.5,N
1578043855.6,286046998.4,N
1578043875.4,286046999.8,N
1578043895.3,286046998.4,N
1578043915.1,286047001.2,N
1578043935.8,286046998.1,N
1578043955.7,286047000.4,N
1578043975.5,286046998.3,N
1578043995.4,286047000.6,N
1578044015.2,286046999.9,N
1578044035.0,286047002.7,N
1578044035.9,286047002.7,N
1578044055.8,286047000.8,N
1578044075.6,286046998.3,N
1578044095.4,286046998.3,N
1578044115.3,286047000.8,N
1578044135.1,286046999.3,N
1578044155.9,286047000.6,N
1578044175.7,286047001.0,N
1578044195.5,286047001.2,N
1578044215.4,286046996.5,N
1578044235.2,286046996.6,N
1578044255.1,286047001.2,N
1578044256.0,286047001.2,N
1578044275.8,286046998.4,N
1578044295.6,286046998.7,N
1578044315.5,286046999.0,N
1578044335.3,286047000.8,N
1578044355.1,286047000.6,N
1578044375.9,286047000.9,N
1578044395.7,286047001.0,N
1578044415.6,286046998.2,N
1578044435.4,286046999.6,N
1578044455.2,286046996.8,N
1578044475.1,286046996.6,N
1578044476.0,286046996.6,N
1578044495.8,286046997.1,N
1578044515.7,286046997.6,N
1578044535.5,286046996.7,N
1578044555.3,286046997.8,N
1578044575.2,286046999.4,N
1578044595.0,286046996.8,N
1578044595.9,286046996.8,N
1578044615.7,286046999.5,N
1578044635.6,286046998.6,N
1578044655.4,286046998.9,N
1578044675.3,286046998.6,N
1578044695.1,286046998.7,N
1578044696.0,286046998.7,N
1578044715.8,286046996.8,N
1578044735.7,286046997.3,N
1578044755.5,286046999.6,N
1578044775.3,286046999.5,N
1578044795.2,286046996.8,N
1578044815.0,286046999.1,N
1578044815.9,286046999.1,N
1578044835.8,286046997.1,N
1578044855.6,286046997.4,N
1578044875.4,286046996.8,N
1578044895.3,286046997.0,N
1578044915.1,286047000.7,N
1578044935.8,286046997.4,N
1578044955.7,286046997.5,N
1578044975.5,286046994.9,Y
1578044995.4,286046998.5,P
1578045015.2,286047001.1,P
1578045035.0,286047000.0,N
1578045035.9,286047000.0,N
1578045055.8,286047001.0,N
1578045075.6,286047000.2,N
1578045095.5,286046998.2,N
1578045115.3,286047002.1,N
1578045135.1,286047001.7,N
1578045155.9,286047002.1,N
1578045175.7,286047001.3,N
1578045195.5,286047002.8,N
1578045215.4,286047000.6,N
1578045235.2,286047000.8,N
1578045255.1,286047001.2,N
1578045256.0,286047001.2,N
1578045275.8,286047000.5,N
1578045295.6,286047001.1,N
1578045315.5,286046999.5,N
1578045335.3,286046999.4,N
1578045355.1,286046996.9,N
1578045375.9,286046995.1,Y
1578045395.7,286046995.7,P
1578045415.6,286046996.1,N
1578045435.4,286046998.0,N
1578045455.2,286046996.7,N
1578045475.1,286046997.3,N
1578045476.0,286046997.3,N
1578045495.8,286046995.7,Y
1578045515.7,286046998.8,P
1578045535.5,286046999.3,N
1578045555.3,286046998.8,N
1578045575.2,286046998.2,N
1578045595.0,286047000.4,N
1578045595.9,286047000.4,N
